TimeEST,TemperatureF,Dew PointF,Humidity,Sea Level PressureIn,VisibilityMPH,Wind Direction,Wind SpeedMPH,Gust SpeedMPH,PrecipitationIn,Events,Conditions,WindDirDegrees,DateUTC
12:53 AM,30.0,24.1,79,29.95,10.0,North,3.5,-,N/A,,Overcast,10,2014-01-18 05:53:00
1:53 AM,28.9,24.1,82,29.94,10.0,Calm,Calm,-,N/A,,Overcast,0,2014-01-18 06:53:00
2:53 AM,28.9,25.0,85,29.94,10.0,Calm,Calm,-,N/A,,Overcast,0,2014-01-18 07:53:00
3:53 AM,28.9,25.0,85,29.92,10.0,NNE,4.6,-,N/A,,Mostly Cloudy,20,2014-01-18 08:53:00
4:53 AM,28.9,25.0,85,29.91,10.0,North,4.6,-,N/A,,Overcast,350,2014-01-18 09:53:00
5:53 AM,28.9,25.0,85,29.91,9.0,Calm,Calm,-,N/A,,Overcast,0,2014-01-18 10:53:00
6:53 AM,28.9,25.0,85,29.88,9.0,Calm,Calm,-,N/A,,Overcast,0,2014-01-18 11:53:00
7:53 AM,30.0,25.0,82,29.84,8.0,North,5.8,-,N/A,,Overcast,350,2014-01-18 12:53:00
8:53 AM,30.9,25.0,79,29.84,8.0,Calm,Calm,-,N/A,,Overcast,0,2014-01-18 13:53:00
9:10 AM,30.9,25.0,79,29.79,7.0,WNW,3.5,-,N/A,,Overcast,290,2014-01-18 14:10:00
9:35 AM,30.9,26.1,82,29.79,8.0,Calm,Calm,-,N/A,,Overcast,0,2014-01-18 14:35:00
9:53 AM,30.9,26.1,82,29.85,4.0,West,4.6,-,0.00,Snow,Light Snow,280,2014-01-18 14:53:00
10:53 AM,32.0,27.0,82,29.82,3.0,North,5.8,-,0.00,Snow,Light Snow,10,2014-01-18 15:53:00
11:00 AM,32.0,27.0,82,29.75,1.8,North,5.8,-,0.00,Snow,Light Snow,360,2014-01-18 16:00:00
11:18 AM,32.0,28.0,85,29.75,0.8,NNW,5.8,-,0.00,Snow,Light Snow,330,2014-01-18 16:18:00
11:30 AM,30.9,28.9,92,29.74,0.5,NNW,5.8,-,0.01,Fog-Snow,Snow,340,2014-01-18 16:30:00
11:42 AM,30.9,28.9,92,29.72,0.2,NNW,6.9,-,0.03,Fog-Snow,Snow,340,2014-01-18 16:42:00
11:53 AM,30.9,28.9,92,29.77,0.2,North,8.1,-,0.05,Fog-Snow,Snow,350,2014-01-18 16:53:00
12:53 PM,32.0,30.0,92,29.71,0.2,NNW,6.9,-,0.09,Fog-Snow,Snow,340,2014-01-18 17:53:00
1:22 PM,32.0,30.0,92,29.64,0.2,North,5.8,-,0.06,Fog-Snow,Heavy Snow,360,2014-01-18 18:22:00
1:53 PM,32.0,30.0,92,29.69,0.2,NNW,5.8,-,0.13,Fog-Snow,Snow,340,2014-01-18 18:53:00
2:07 PM,30.9,30.0,96,29.64,0.2,NNW,5.8,-,0.02,Fog-Snow,Snow,330,2014-01-18 19:07:00
2:23 PM,32.0,30.0,92,29.63,0.2,NNW,5.8,-,0.05,Fog-Snow,Light Snow,340,2014-01-18 19:23:00
2:53 PM,32.0,30.0,92,29.69,0.2,North,6.9,-,0.10,Fog-Snow,Snow,350,2014-01-18 19:53:00
3:53 PM,32.0,30.9,96,29.69,0.2,NNW,6.9,-,0.07,Snow,Light Snow,340,2014-01-18 20:53:00
4:53 PM,32.0,30.0,92,29.69,1.8,North,8.1,-,0.01,Snow,Light Snow,350,2014-01-18 21:53:00
5:18 PM,32.0,30.9,96,29.63,3.0,NNW,6.9,-,0.00,Snow,Light Snow,340,2014-01-18 22:18:00
5:53 PM,32.0,30.9,96,29.69,5.0,NNW,8.1,-,0.00,Snow,Light Snow,330,2014-01-18 22:53:00
6:53 PM,32.0,30.0,92,29.70,3.0,North,9.2,-,0.00,Snow,Light Snow,350,2014-01-18 23:53:00
7:35 PM,32.0,30.0,92,29.65,1.0,NNW,9.2,-,0.00,Snow,Light Snow,330,2014-01-19 00:35:00
7:53 PM,32.0,30.0,92,29.70,1.0,NNW,10.4,-,0.01,Snow,Light Snow,340,2014-01-19 00:53:00
8:53 PM,32.0,28.9,88,29.71,1.5,NNW,8.1,-,0.00,Snow,Light Snow,340,2014-01-19 01:53:00
9:36 PM,30.9,28.9,92,29.67,2.0,NNW,6.9,-,0.00,Snow,Light Snow,340,2014-01-19 02:36:00
9:53 PM,30.9,28.9,92,29.72,1.5,North,8.1,-,0.00,Snow,Light Snow,350,2014-01-19 02:53:00
10:10 PM,32.0,28.9,88,29.68,1.0,NW,4.6,-,0.01,Snow,Light Snow,320,2014-01-19 03:10:00
10:25 PM,32.0,28.9,88,29.68,2.0,NW,4.6,-,0.01,Snow,Light Snow,320,2014-01-19 03:25:00
10:43 PM,32.0,28.9,88,29.68,4.0,NNW,4.6,-,0.02,Snow,Light Snow,340,2014-01-19 03:43:00
10:53 PM,32.0,28.9,88,29.74,7.0,NNW,4.6,-,0.02,,Overcast,330,2014-01-19 03:53:00
11:09 PM,30.9,28.9,92,29.68,8.0,NNW,3.5,-,0.00,,Overcast,330,2014-01-19 04:09:00
11:53 PM,30.9,28.9,92,29.72,3.0,NNW,4.6,-,0.00,Snow,Light Snow,330,2014-01-19 04:53:00